| time (UTC) | temp C | wind direction | speed KPH | gust KPH | rain 1hr cm | rain 24hr cm | rain mn cm | humidity % | barometer mb |
| 20260505073009 | 17 | 184 | 1.6 | 8.0 | 0.00 | 0.00 | 0.00 | 81 | 1010.6 |
| 20260505072506 | 17 | 119 | 1.6 | 8.0 | 0.00 | 0.00 | 0.00 | 81 | 1010.8 |
| 20260505072007 | 17 | 68 | 1.6 | 8.0 | 0.00 | 0.00 | 0.00 | 81 | 1010.7 |
| 20260505071506 | 17 | 62 | 1.6 | 8.0 | 0.00 | 0.00 | 0.00 | 81 | 1010.8 |
| 20260505071007 | 17 | 198 | 1.6 | 6.4 | 0.00 | 0.00 | 0.00 | 80 | 1010.9 |
| 20260505070506 | 17 | 261 | 1.6 | 6.4 | 0.00 | 0.00 | 0.00 | 80 | 1010.8 |
| 20260505070008 | 17 | 250 | 1.6 | 6.4 | 0.00 | 0.00 | 0.00 | 80 | 1011.0 |
| 20260505065505 | 17 | 178 | 1.6 | 12.9 | 0.00 | 0.00 | 0.00 | 80 | 1011.2 |
| 20260505065005 | 17 | 29 | 1.6 | 12.9 | 0.00 | 0.00 | 0.00 | 80 | 1011.2 |
| 20260505063505 | 18 | 175 | 1.6 | 6.4 | 0.00 | 0.00 | 0.00 | 79 | 1011.3 |
| 20260505063008 | 18 | 218 | 0.0 | 6.4 | 0.00 | 0.00 | 0.00 | 79 | 1011.2 |
| 20260505062506 | 18 | 242 | 0.0 | 4.8 | 0.00 | 0.00 | 0.00 | 79 | 1011.2 |
| 20260505062007 | 18 | 149 | 0.0 | 1.6 | 0.00 | 0.00 | 0.00 | 79 | 1011.4 |
| 20260505061506 | 18 | 149 | 0.0 | 1.6 | 0.00 | 0.00 | 0.00 | 78 | 1011.5 |
| 20260505060506 | 18 | 69 | 1.6 | 6.4 | 0.00 | 0.00 | 0.00 | 78 | 1011.6 |
| 20260505060014 | 18 | 69 | 1.6 | 6.4 | 0.00 | 0.00 | 0.00 | 78 | 1011.5 |
| 20260505055507 | 18 | 200 | 0.0 | 6.4 | 0.00 | 0.00 | 0.00 | 78 | 1011.5 |
| 20260505054008 | 18 | 157 | 1.6 | 9.7 | 0.00 | 0.00 | 0.00 | 78 | 1011.5 |
| 20260505053507 | 18 | 275 | 1.6 | 9.7 | 0.00 | 0.00 | 0.00 | 78 | 1011.6 |
| 20260505053010 | 18 | 286 | 1.6 | 6.4 | 0.00 | 0.00 | 0.00 | 78 | 1011.6 |
| 20260505052508 | 18 | 160 | 1.6 | 9.7 | 0.00 | 0.00 | 0.00 | 79 | 1011.6 |
| 20260505052010 | 18 | 142 | 3.2 | 9.7 | 0.00 | 0.00 | 0.00 | 79 | 1011.5 |
| 20260505051509 | 18 | 229 | 3.2 | 6.4 | 0.00 | 0.00 | 0.00 | 79 | 1011.8 |
| 20260505051008 | 18 | 49 | 1.6 | 11.3 | 0.00 | 0.00 | 0.00 | 80 | 1011.7 |
| 20260505050509 | 18 | 262 | 1.6 | 11.3 | 0.00 | 0.00 | 0.00 | 80 | 1011.7 |
| 20260505041511 | 18 | 227 | 0.0 | 4.8 | 0.00 | 0.00 | 0.00 | 78 | 1012.5 |
| 20260505041010 | 18 | 244 | 1.6 | 4.8 | 0.00 | 0.00 | 0.00 | 78 | 1012.3 |
| 20260505040507 | 18 | 183 | 1.6 | 8.0 | 0.00 | 0.00 | 0.00 | 77 | 1012.2 |
| 20260505040008 | 19 | 266 | 1.6 | 8.0 | 0.00 | 0.00 | 0.00 | 76 | 1012.1 |
| 20260505035507 | 19 | 255 | 1.6 | 4.8 | 0.00 | 0.00 | 0.00 | 76 | 1012.0 |
| 20260505034507 | 19 | 213 | 3.2 | 8.0 | 0.00 | 0.00 | 0.00 | 76 | 1012.1 |
| 20260505034009 | 19 | 230 | 1.6 | 8.0 | 0.00 | 0.00 | 0.00 | 76 | 1012.0 |
| 20260505033507 | 19 | 205 | 1.6 | 11.3 | 0.00 | 0.00 | 0.00 | 76 | 1011.9 |
| 20260505033008 | 19 | 207 | 1.6 | 11.3 | 0.00 | 0.00 | 0.00 | 75 | 1011.8 |
| 20260505032008 | 19 | 203 | 1.6 | 9.7 | 0.00 | 0.00 | 0.00 | 75 | 1011.7 |
| 20260505031507 | 19 | 223 | 1.6 | 8.0 | 0.00 | 0.00 | 0.00 | 74 | 1011.8 |
| 20260505030011 | 20 | 134 | 1.6 | 8.0 | 0.00 | 0.00 | 0.00 | 73 | 1011.8 |
| 20260505024509 | 20 | 176 | 1.6 | 9.7 | 0.00 | 0.00 | 0.00 | 72 | 1011.5 |
| 20260505024009 | 20 | 200 | 1.6 | 9.7 | 0.00 | 0.00 | 0.00 | 72 | 1011.6 |
| 20260505023508 | 20 | 226 | 1.6 | 6.4 | 0.00 | 0.00 | 0.00 | 72 | 1011.5 |
| 20260505023009 | 20 | 195 | 1.6 | 6.4 | 0.00 | 0.00 | 0.00 | 72 | 1011.4 |
| 20260505022507 | 20 | 253 | 0.0 | 4.8 | 0.00 | 0.00 | 0.00 | 72 | 1011.4 |
| 20260505022009 | 20 | 132 | 1.6 | 6.4 | 0.00 | 0.00 | 0.00 | 71 | 1011.2 |
| 20260505021009 | 20 | 171 | 1.6 | 12.9 | 0.00 | 0.00 | 0.00 | 71 | 1011.1 |
| 20260505020508 | 20 | 203 | 1.6 | 12.9 | 0.00 | 0.00 | 0.00 | 71 | 1011.1 |
| 20260505020011 | 20 | 78 | 0.0 | 4.8 | 0.00 | 0.00 | 0.00 | 71 | 1011.0 |
| 20260505015507 | 20 | 220 | 0.0 | 4.8 | 0.00 | 0.00 | 0.00 | 71 | 1011.1 |
| 20260505015008 | 20 | 214 | 0.0 | 4.8 | 0.00 | 0.00 | 0.00 | 71 | 1011.0 |
| 20260505014508 | 20 | 71 | 0.0 | 4.8 | 0.00 | 0.00 | 0.00 | 70 | 1011.0 |
| 20260505014007 | 20 | 98 | 0.0 | 3.2 | 0.00 | 0.00 | 0.00 | 69 | 1011.1 |
| 20260505013507 | 21 | 72 | 0.0 | 3.2 | 0.00 | 0.00 | 0.00 | 69 | 1011.0 |
| 20260505012508 | 21 | 288 | 0.0 | 3.2 | 0.00 | 0.00 | 0.00 | 69 | 1011.0 |
| 20260505012008 | 21 | 288 | 0.0 | 4.8 | 0.00 | 0.00 | 0.00 | 68 | 1011.0 |
| 20260505011509 | 21 | 211 | 1.6 | 4.8 | 0.00 | 0.00 | 0.00 | 67 | 1011.0 |
| 20260505011009 | 21 | 197 | 0.0 | 6.4 | 0.00 | 0.00 | 0.00 | 66 | 1011.1 |
| 20260505010506 | 21 | 12 | 1.6 | 6.4 | 0.00 | 0.00 | 0.00 | 66 | 1011.1 |
| 20260505010011 | 21 | 169 | 1.6 | 11.3 | 0.00 | 0.00 | 0.00 | 65 | 1011.1 |
| 20260505005006 | 22 | 225 | 3.2 | 12.9 | 0.00 | 0.00 | 0.00 | 65 | 1011.1 |
| 20260505004506 | 22 | 159 | 3.2 | 11.3 | 0.00 | 0.00 | 0.00 | 64 | 1011.3 |
| 20260505004008 | 22 | 216 | 1.6 | 8.0 | 0.00 | 0.00 | 0.00 | 64 | 1011.1 |
| 20260505003013 | 22 | 162 | 1.6 | 11.3 | 0.00 | 0.00 | 0.00 | 63 | 1011.1 |
| 20260505002506 | 22 | 234 | 3.2 | 11.3 | 0.00 | 0.00 | 0.00 | 62 | 1011.1 |
| 20260505002011 | 22 | 230 | 1.6 | 9.7 | 0.00 | 0.00 | 0.00 | 62 | 1011.1 |
| 20260505001508 | 22 | 204 | 1.6 | 8.0 | 0.00 | 0.00 | 0.00 | 62 | 1011.0 |
| 20260505001008 | 23 | 231 | 1.6 | 8.0 | 0.00 | 0.00 | 0.00 | 61 | 1011.1 |
| 20260505000506 | 23 | 46 | 1.6 | 12.9 | 0.00 | 0.00 | 0.00 | 61 | 1011.0 |
| 20260505000008 | 23 | 192 | 1.6 | 12.9 | 0.00 | 0.00 | 0.00 | 60 | 1011.0 |
| 20260504235507 | 23 | 248 | 1.6 | 6.4 | 0.00 | 0.00 | 0.00 | 60 | 1011.2 |
| 20260504235006 | 23 | 256 | 1.6 | 6.4 | 0.00 | 0.00 | 0.00 | 60 | 1011.3 |
| 20260504234507 | 23 | 126 | 1.6 | 6.4 | 0.00 | 0.00 | 0.00 | 60 | 1011.2 |
| 20260504233507 | 23 | 129 | 3.2 | 9.7 | 0.00 | 0.00 | 0.00 | 59 | 1011.4 |
| 20260504233009 | 23 | 193 | 4.8 | 11.3 | 0.00 | 0.00 | 0.00 | 58 | 1011.7 |
| 20260504232506 | 23 | 186 | 4.8 | 12.9 | 0.00 | 0.00 | 0.00 | 57 | 1011.5 |
| 20260504231507 | 23 | 181 | 4.8 | 11.3 | 0.00 | 0.00 | 0.00 | 57 | 1011.6 |
| 20260504230508 | 24 | 215 | 3.2 | 11.3 | 0.00 | 0.00 | 0.00 | 56 | 1011.8 |
| 20260504230009 | 24 | 243 | 3.2 | 11.3 | 0.00 | 0.00 | 0.00 | 56 | 1011.8 |
| 20260504225506 | 24 | 309 | 3.2 | 12.9 | 0.00 | 0.00 | 0.00 | 55 | 1011.8 |
| 20260504224509 | 24 | 194 | 4.8 | 16.1 | 0.00 | 0.00 | 0.00 | 53 | 1011.8 |
| 20260504223507 | 25 | 209 | 4.8 | 14.5 | 0.00 | 0.00 | 0.00 | 53 | 1011.9 |
| 20260504223010 | 25 | 171 | 3.2 | 6.4 | 0.00 | 0.00 | 0.00 | 54 | 1011.9 |
| 20260504222507 | 25 | 174 | 3.2 | 14.5 | 0.00 | 0.00 | 0.00 | 54 | 1011.9 |
| 20260504222009 | 25 | 159 | 4.8 | 14.5 | 0.00 | 0.00 | 0.00 | 53 | 1011.9 |
| 20260504221506 | 25 | 167 | 4.8 | 12.9 | 0.00 | 0.00 | 0.00 | 53 | 1012.0 |
| 20260504221008 | 25 | 210 | 3.2 | 14.5 | 0.00 | 0.00 | 0.00 | 53 | 1012.0 |
| 20260504220507 | 25 | 149 | 3.2 | 12.9 | 0.00 | 0.00 | 0.00 | 53 | 1012.1 |
| 20260504220010 | 25 | 240 | 3.2 | 12.9 | 0.00 | 0.00 | 0.00 | 53 | 1012.2 |
| 20260504215507 | 25 | 190 | 1.6 | 12.9 | 0.00 | 0.00 | 0.00 | 53 | 1012.4 |
| 20260504215008 | 25 | 5 | 3.2 | 17.7 | 0.00 | 0.00 | 0.00 | 52 | 1012.4 |
| 20260504214507 | 25 | 248 | 4.8 | 20.9 | 0.00 | 0.00 | 0.00 | 51 | 1012.4 |
| 20260504214009 | 25 | 224 | 4.8 | 20.9 | 0.00 | 0.00 | 0.00 | 50 | 1012.4 |
| 20260504213507 | 25 | 190 | 3.2 | 16.1 | 0.00 | 0.00 | 0.00 | 51 | 1012.6 |
| 20260504213009 | 25 | 255 | 4.8 | 12.9 | 0.00 | 0.00 | 0.00 | 51 | 1012.5 |
| 20260504212507 | 25 | 279 | 4.8 | 14.5 | 0.00 | 0.00 | 0.00 | 50 | 1012.6 |
| 20260504212007 | 26 | 175 | 4.8 | 19.3 | 0.00 | 0.00 | 0.00 | 50 | 1012.7 |
| 20260504211507 | 26 | 143 | 4.8 | 19.3 | 0.00 | 0.00 | 0.00 | 49 | 1012.6 |
| 20260504211009 | 26 | 92 | 4.8 | 14.5 | 0.00 | 0.00 | 0.00 | 49 | 1012.8 |
| 20260504210008 | 26 | 250 | 6.4 | 20.9 | 0.00 | 0.00 | 0.00 | 48 | 1012.9 |
| 20260504205506 | 26 | 209 | 6.4 | 20.9 | 0.00 | 0.00 | 0.00 | 50 | 1013.0 |
| 20260504205007 | 26 | 228 | 3.2 | 14.5 | 0.00 | 0.00 | 0.00 | 48 | 1013.1 |
| 20260504204506 | 26 | 214 | 3.2 | 12.9 | 0.00 | 0.00 | 0.00 | 50 | 1013.3 |
| 20260504204007 | 26 | 164 | 4.8 | 14.5 | 0.00 | 0.00 | 0.00 | 50 | 1013.2 |
| 20260504203506 | 26 | 217 | 6.4 | 17.7 | 0.00 | 0.00 | 0.00 | 48 | 1013.3 |
| 20260504203008 | 26 | 264 | 6.4 | 17.7 | 0.00 | 0.00 | 0.00 | 49 | 1013.5 |
| 20260504202505 | 26 | 107 | 6.4 | 16.1 | 0.00 | 0.00 | 0.00 | 48 | 1013.4 |
| 20260504201506 | 26 | 242 | 4.8 | 17.7 | 0.00 | 0.00 | 0.00 | 48 | 1013.7 |
| 20260504201006 | 26 | 175 | 4.8 | 17.7 | 0.00 | 0.00 | 0.00 | 49 | 1013.8 |
| 20260504200506 | 26 | 322 | 4.8 | 12.9 | 0.00 | 0.00 | 0.00 | 48 | 1013.8 |
| 20260504200009 | 26 | 244 | 6.4 | 19.3 | 0.00 | 0.00 | 0.00 | 48 | 1014.0 |
| 20260504195506 | 26 | 213 | 6.4 | 19.3 | 0.00 | 0.00 | 0.00 | 47 | 1014.1 |
| 20260504195007 | 26 | 300 | 4.8 | 17.7 | 0.00 | 0.00 | 0.00 | 49 | 1014.2 |
| 20260504194507 | 26 | 207 | 3.2 | 16.1 | 0.00 | 0.00 | 0.00 | 47 | 1014.3 |
| 20260504194008 | 26 | 194 | 3.2 | 12.9 | 0.00 | 0.00 | 0.00 | 49 | 1014.2 |
| 20260504193505 | 26 | 83 | 4.8 | 14.5 | 0.00 | 0.00 | 0.00 | 48 | 1014.5 |
| 20260504193007 | 26 | 150 | 6.4 | 14.5 | 0.00 | 0.00 | 0.00 | 47 | 1014.5 |
| 20260504192507 | 26 | 144 | 4.8 | 14.5 | 0.00 | 0.00 | 0.00 | 48 | 1014.5 |
| 20260504192006 | 26 | 227 | 4.8 | 19.3 | 0.00 | 0.00 | 0.00 | 47 | 1014.5 |
| 20260504191008 | 26 | 171 | 4.8 | 12.9 | 0.00 | 0.00 | 0.00 | 46 | 1014.6 |
| 20260504190507 | 26 | 157 | 4.8 | 16.1 | 0.00 | 0.00 | 0.00 | 49 | 1015.0 |
| 20260504190011 | 26 | 174 | 4.8 | 16.1 | 0.00 | 0.00 | 0.00 | 48 | 1015.2 |
| 20260504185008 | 26 | 18 | 4.8 | 14.5 | 0.00 | 0.00 | 0.00 | 46 | 1015.4 |
| 20260504184508 | 26 | 170 | 3.2 | 11.3 | 0.00 | 0.00 | 0.00 | 44 | 1015.5 |
| 20260504183507 | 26 | 139 | 4.8 | 16.1 | 0.00 | 0.00 | 0.00 | 47 | 1015.6 |
| 20260504183009 | 26 | 257 | 4.8 | 16.1 | 0.00 | 0.00 | 0.00 | 44 | 1015.7 |
| 20260504182509 | 26 | 219 | 4.8 | 16.1 | 0.00 | 0.00 | 0.00 | 46 | 1015.7 |
| 20260504181507 | 25 | 180 | 4.8 | 19.3 | 0.00 | 0.00 | 0.00 | 43 | 1015.9 |
| 20260504180508 | 25 | 69 | 3.2 | 12.9 | 0.00 | 0.00 | 0.00 | 47 | 1015.8 |
| 20260504180012 | 25 | 237 | 4.8 | 17.7 | 0.00 | 0.00 | 0.00 | 47 | 1015.9 |
| 20260504175506 | 25 | 304 | 4.8 | 17.7 | 0.00 | 0.00 | 0.00 | 44 | 1015.9 |
| 20260504175008 | 25 | 321 | 4.8 | 12.9 | 0.00 | 0.00 | 0.00 | 46 | 1015.9 |
| 20260504174506 | 25 | 188 | 6.4 | 19.3 | 0.00 | 0.00 | 0.00 | 46 | 1016.1 |
| 20260504174006 | 25 | 265 | 4.8 | 19.3 | 0.00 | 0.00 | 0.00 | 46 | 1016.1 |
| 20260504173507 | 25 | 248 | 4.8 | 16.1 | 0.00 | 0.00 | 0.00 | 46 | 1016.0 |
| 20260504173007 | 25 | 319 | 6.4 | 17.7 | 0.00 | 0.00 | 0.00 | 46 | 1016.3 |
| 20260504172506 | 25 | 217 | 4.8 | 17.7 | 0.00 | 0.00 | 0.00 | 46 | 1016.4 |
| 20260504172008 | 25 | 226 | 6.4 | 17.7 | 0.00 | 0.00 | 0.00 | 48 | 1016.5 |
| 20260504171506 | 25 | 269 | 8.0 | 20.9 | 0.00 | 0.00 | 0.00 | 46 | 1016.6 |
| 20260504170507 | 25 | 311 | 6.4 | 16.1 | 0.00 | 0.00 | 0.00 | 47 | 1016.7 |
| 20260504151007 | 22 | 167 | 6.4 | 16.1 | 0.00 | 0.00 | 0.00 | 61 | 1017.1 |
| 20260504150506 | 21 | 155 | 4.8 | 14.5 | 0.00 | 0.00 | 0.00 | 63 | 1017.3 |
| 20260504141006 | 16 | 170 | 3.2 | 8.0 | 0.00 | 0.00 | 0.00 | 84 | 1017.4 |
| 20260504140507 | 15 | 237 | 1.6 | 8.0 | 0.00 | 0.00 | 0.00 | 85 | 1017.6 |
| 20260504130506 | 11 | 180 | 0.0 | 3.2 | 0.00 | 0.00 | 0.00 | 92 | 1017.0 |
| 20260504110505 | 10 | 195 | 0.0 | 0.0 | 0.00 | 0.00 | 0.00 | 89 | 1017.0 |
| 20260504100506 | 11 | 195 | 0.0 | 0.0 | 0.00 | 0.00 | 0.00 | 88 | 1016.8 |
| 20260504082006 | 12 | 195 | 0.0 | 0.0 | 0.00 | 0.00 | 0.00 | 87 | 1017.2 |
| 20260504081505 | 12 | 195 | 0.0 | 0.0 | 0.00 | 0.00 | 0.00 | 87 | 1017.2 |
| 20260504081006 | 12 | 195 | 0.0 | 0.0 | 0.00 | 0.00 | 0.00 | 86 | 1017.2 |
| 20260504080505 | 12 | 195 | 0.0 | 0.0 | 0.00 | 0.00 | 0.00 | 86 | 1017.3 |